Tracking 17264 objects as of 2-September-2015
HD Live streaming from Space Station

Track Soyuz TMA-18M
and Space Station

NAVSTAR 33 (USA 92)

Track NAVSTAR 33 (USA 92) now!
NAVSTAR 33 (USA 92) is classified as:


NORAD ID: 22700
Int'l Code: 1993-042A
Perigee: 19,743.4 km
Apogee: 20,636.4 km
Inclination: 56.0 °
Period: 718.0 minutes
Semi major axis: 26560 km
RCS: 3.4011 m2 (large)
Launch date: June 26, 1993
Source: United States (US)
PRN:
Your satellite tracking list
Your tracking list is empty





NASA's NSSDC Master Catalog

Two Line Element Set (TLE):
1 22700U 93042A   15243.53395120 -.00000032 +00000-0 +00000-0 0  9998
2 22700 056.0259 307.0283 0168112 115.1973 326.1526 02.00557738162381

Source of the keplerian elements: AFSPC

N2YO: 443